Helicity
477 376 341 337 287 188 164 134 135 197 257 260 222 225 245 302 307 322 334 327 354 408
443 570 431 505 379 246 309 179 150 172 229 250 244 234 214 233 233 271 266 290 308 348
428 614 600 581 502 383 536 488 125 192 262 273 255 241 231 241 213 207 223 249 251 267
316 511 605 601 645 609 635 718 472 233 267 276 268 252 247 251 227 214 221 231 202 227
228 210 433 665 748 820 752 769 582 491 354 339 295 276 261 259 245 242 232 206 188 180
123 206 311 384 712 565 849 722 1034 748 507 475 343 292 260 238 232 232 202 177 175 145
69 125 174 317 418 818 637 852 797 804 826 540 472 397 291 229 210 184 163 165 154 155
47 76 148 275 238 403 705 462 1089 940 1082 807 501 464 385 316 215 169 167 158 149 169
39 29 54 91 231 192 493 657 312 509 563 552 469 425 377 326 271 252 167 130 140 157
17 25 44 55 94 188 186 520 507 489 753 523 404 356 328 298 245 253 232 206 147 165
26 31 38 60 51 77 110 218 516 478 267 331 411 346 317 327 237 199 181 163 177 175
61 48 34 48 53 59 33 94 50 227 195 237 259 276 243 213 190 155 179 173 119 144
88 68 51 47 52 51 46 45 31 54 125 327 131 166 185 159 116 95 76 31 60 67
91 99 77 67 56 45 39 48 61 57 71 72 65 80 140 120 86 80 59 46 40 46
Wind_Speed
73 77 79 84 89 84 89 88 83 79 75 73 71 70 69 70 70 67 67 68 69 67
68 72 74 76 78 77 78 83 78 77 75 71 69 67 67 68 68 66 66 67 69 70
65 69 68 71 70 68 72 71 77 72 70 67 66 66 65 67 66 66 66 64 66 68
62 64 65 62 58 60 60 61 68 69 65 63 64 63 62 63 63 65 63 62 64 66
59 57 57 56 53 52 58 57 58 59 61 59 58 58 59 59 58 59 61 61 63 66
58 56 56 54 44 48 47 44 46 43 52 53 52 52 54 56 56 59 60 60 61 63
54 54 54 51 46 51 46 51 37 39 47 39 41 45 50 52 53 56 58 57 58 57
53 56 54 52 50 51 50 43 45 51 50 43 37 39 43 47 54 57 58 57 57 57
54 50 47 49 51 50 46 40 41 36 34 39 39 38 40 45 50 51 57 58 57 57
57 53 51 50 47 48 48 43 42 41 41 45 37 41 41 43 47 52 57 58 62 59
58 55 53 51 48 46 45 49 49 48 45 43 38 43 40 44 46 51 54 57 57 57
60 58 56 53 50 48 43 44 47 50 45 38 39 44 39 41 43 47 52 56 60 61
62 61 59 57 54 52 51 51 49 49 47 40 41 41 42 43 45 51 54 55 56 59
63 62 61 59 56 56 56 54 51 51 46 46 43 41 43 44 43 48 50 53 58 61
Wind_Direction
290 283 279 275 270 264 258 251 246 243 242 242 243 244 243 243 244 245 246 247 248 250
293 286 281 278 273 266 262 254 245 242 240 240 242 241 242 243 244 245 246 248 248 249
292 288 283 277 273 268 262 259 245 240 237 238 239 239 240 242 244 244 246 248 248 251
293 289 279 274 270 267 265 261 254 237 234 234 237 238 238 241 242 244 246 248 249 250
291 287 283 274 272 274 264 260 257 248 230 232 235 235 236 238 239 240 244 248 251 253
290 284 278 273 279 277 266 265 250 245 237 228 231 232 236 238 241 244 247 250 251 253
292 284 286 287 280 273 278 261 271 262 251 225 230 235 238 241 243 245 248 250 252 254
293 299 286 284 278 279 266 282 262 262 261 250 235 241 242 244 246 248 250 253 255 258
297 293 292 284 284 277 275 279 268 249 250 246 245 249 250 252 251 252 253 255 259 261
296 288 291 295 282 276 275 277 277 279 277 265 258 259 259 257 256 255 257 261 260 262
291 289 289 286 285 278 277 271 266 270 258 259 269 267 264 265 262 262 261 260 265 264
286 289 288 282 276 281 276 269 264 260 267 274 272 268 267 266 268 267 268 269 268 270
283 285 285 280 279 272 270 264 264 266 273 273 269 269 268 274 274 272 271 273 276 275
288 288 285 283 278 279 270 268 270 268 269 266 273 275 275 275 276 275 275 276 276 275